STARLINK-34122 (64117 NORAD) Tracking and Keplerian Element Data

This shows tracking and keplerian element data for the satellite.

Feedback or suggestion? Click here.




ElementValue
Catalog64117
NameSTARLINK-34122
Epoch Orbit3370
Epoch Day354.12086891
Epoch Year2025
RAAN36.1033
Inclination53.1594
Eccentricity0.0001823
Argument of Perigee99.6284
Mean Anonmoly260.4923
Mean Motion15.30196132
Decay Rate0.000219
L11 64117U 25110X 25354.12086891 .00021900 00000+0 74943-3 0 9993
L22 64117 53.1594 36.1033 0001823 99.6284 260.4923 15.30196132 33706



Live tracking and technical data element details for STARLINK-34122 (NORAD 64117). STARLINK-34122 can be tracked NOW for your location showing map with azimuth and elevation plus other details from your city location.







IsCatalogInMostPopularTable: catalog: 64117, numindb: 3
Update: records affected: 1



GetName: 64117 STARLINK-34122

Hit Count: updated at: Tue, 10 Feb 2026 03:09:20 GMT